Regional Weather Roundup
Issued by NWS Cleveland, OH

Home | Current Version | Previous Version | Graphics & Text | Print | Product List | Glossary On
Versions: 1 2 3 4 5 6 7 8 9 10 11 12 13 14 15 16 17 18 19 20 21 22 23 24 25 26 27 28 29 30 31 32 33 34 35 36 37 38 39 40 41 42 43 44 45 46 47 48 49 50
000
ASUS41 KCLE 230500
RWRCLE
OHIO REGIONAL WEATHER ROUNDUP
NATIONAL WEATHER SERVICE WILMINGTON, OH
100 AM EDT SAT AUG 23 2014

NOTE: "FAIR" INDICATES FEW OR NO CLOUDS BELOW 12,000 FEET WITH NO
SIGNIFICANT WEATHER AND/OR OBSTRUCTIONS TO VISIBILITY.

OHZ001>008-015>018-024>027-034-035-043-044-230600-
   NORTHWEST OHIO

CITY           SKY/WX    TMP DP  RH WIND       PRES   REMARKS
DEFIANCE       MOCLDY    75  71  87 CALM      30.01S
FINDLAY        PTCLDY    73  70  90 E5        30.01S
TOLEDO EXPRESS MOCLDY    72  70  93 E3        30.02R FOG
TOLEDO METCALF MOCLDY    73  70  90 CALM      30.03R FOG
LIMA           CLOUDY    73  71  93 CALM      30.02R FOG
$$

OHZ009>014-019>023-028>033-038-089-230600-
   NORTHEAST OHIO

CITY           SKY/WX    TMP DP  RH WIND       PRES   REMARKS
CLE-HOPKINS    CLOUDY    72  69  90 CALM      30.03R FOG
CLE-LAKEFRONT  CLOUDY    73  68  84 NE3       30.00S
CUY CO. ARPT   NOT AVBL
LORAIN-ELYRIA  CLOUDY    72  67  84 CALM      30.02S HAZE
ASHTABULA      CLEAR     66  65  96 CALM      30.02S
AKRON-CANTON   PTCLDY    69  67  93 N5        30.01F FOG
WOOSTER        NOT AVBL
MANSFIELD      PTCLDY    69  68  96 NW3       30.03F FOG
YOUNGSTOWN     MOCLDY    68  65  90 N5        30.01S
$$

OHZ042-051>053-060>062-070>072-077>081-230600-
  SOUTHWEST OHIO

CITY           SKY/WX    TMP DP  RH WIND       PRES   REMARKS
CINC-COVINGTON CLOUDY    77  71  82 CALM      30.01S
CINC-LUNKEN    CLOUDY    73  72  96 CALM      30.00F
HAMILTON       CLOUDY    73  73 100 CALM      30.01F FOG
DAYTON         NOT AVBL
WRIGHT-PAT AFB CLEAR     72  71  99 CALM      30.01F
DAYTON GENERAL CLEAR     73  72  96 CALM      30.00F
WILMINGTON     FOG       70  69  97 CALM      30.01F VSB 3/4
$$

OHZ036-037-039>041-045>050-054>059-063>069-073>076-082>088-230600-
  CENTRAL AND SOUTHEAST OHIO

CITY           SKY/WX    TMP DP  RH WIND       PRES   REMARKS
COLUMBUS       PTCLDY    75  71  87 CALM      29.98F
OSU AIRPORT    CLEAR     73  72  96 N6        30.00F
BOLTON FIELD   NOT AVBL
RICKENBACK AFB NOT AVBL
NEWARK         FOG       70  68  93 CALM      29.99S VSB 1/4
MARION         CLEAR     70  68  93 CALM      30.02S FOG
LANCASTER      CLOUDY    69  67  93 CALM      29.99F FOG
ZANESVILLE     CLEAR     71  70  96 CALM      29.99S
NEW PHILLY     FOG       69  69 100 CALM      30.00F VSB 1/2
$$



USA.gov is the U.S. government's official web portal to all federal, state and local government web resources and services.